EW4818 Weather Reports


time (UTC)temp
C
wind
direction
speed
KPH
gust
KPH
rain 1hr
cm
rain 24hr
cm
rain mn
cm
humidity
%
barometer
mb
20260505065037 11 134 1.6 6.4 0.00 0.18 0.00 80 1009.7
20260505064103 12 134 1.6 4.8 0.00 0.18 0.00 79 1009.6
20260505063020 12 134 1.6 4.8 0.00 0.18 0.00 77
20260505062019 12 134 1.6 11.3 0.00 0.18 0.00 75
20260505061016 13 164 3.2 14.5 0.00 0.18 0.00 73
20260505060018 13 187 4.8 12.9 0.00 0.18 0.00 73
20260505055039 13 190 4.8 16.1 0.00 0.18 0.00 72
20260505054018 13 197 3.2 11.3 0.00 0.18 0.00 72
20260505053018 13 167 1.6 11.3 0.00 0.18 0.00 71
20260505052038 13 195 4.8 16.1 0.00 0.18 0.00 71
20260505051037 13 213 3.2 16.1 0.00 0.18 0.00 70
20260505041021 13 180 3.2 12.9 0.00 0.18 0.00 69
20260505040019 13 186 4.8 20.9 0.00 0.18 0.00 68
20260505035022 13 187 6.4 16.1 0.00 0.18 0.18 67
20260505034019 13 184 4.8 14.5 0.00 0.18 0.18 66
20260505033022 14 183 1.6 9.7 0.00 0.18 0.18 65
20260505032022 14 182 3.2 12.9 0.00 0.18 0.18 64
20260505031017 14 188 3.2 14.5 0.00 0.18 0.18 63
20260505030016 14 176 6.4 16.1 0.00 0.18 0.18 63
20260505025023 14 177 6.4 12.9 0.00 0.18 0.18 63
20260505024015 14 185 3.2 12.9 0.00 0.18 0.18 63
20260505023021 14 196 1.6 12.9 0.00 0.18 0.18 62
20260505022020 15 202 4.8 12.9 0.00 0.18 0.18 62
20260505021019 15 199 6.4 16.1 0.00 0.18 0.18 61
20260505020021 15 189 8.0 17.7 0.00 0.18 0.18 60
20260505015042 15 188 4.8 16.1 0.00 0.18 0.18 61
20260505014043 15 174 3.2 11.3 0.00 0.18 0.18 61
20260505013020 15 212 3.2 8.0 0.00 0.18 0.18 59
20260505012024 15 209 3.2 22.5 0.00 0.18 0.18 58
20260505011021 15 194 1.6 19.3 0.00 0.18 0.18 58
20260505010018 16 191 8.0 19.3 0.00 0.18 0.18 58
20260505005037 16 196 9.7 29.0 0.00 0.18 0.18 58
20260505004021 16 180 6.4 19.3 0.00 0.18 0.18 58
20260505003038 16 183 6.4 19.3 0.00 0.18 0.18 59
20260505002019 16 184 8.0 27.4 0.00 0.18 0.18 59
20260505001037 16 193 6.4 25.7 0.00 0.18 0.18 59
20260505000016 16 176 6.4 27.4 0.00 0.18 0.18 58
20260504235017 16 176 6.4 33.8 0.00 0.18 0.18 57
20260504234021 17 175 6.4 12.9 0.00 0.18 0.18 55
20260504233018 18 175 3.2 35.4 0.00 0.18 0.18 51
20260504232017 18 183 9.7 30.6 0.00 0.18 0.18 50
20260504231017 18 171 8.0 27.4 0.00 0.18 0.18 51
20260504230016 18 173 3.2 16.1 0.00 0.18 0.18 51
20260504225020 20 131 4.8 19.3 0.00 0.18 0.18 48
20260504224043 20 171 4.8 19.3 0.00 0.18 0.18 45
20260504223016 22 167 6.4 19.3 0.00 0.18 0.18 37
20260504222020 22 195 9.7 32.2 0.00 0.18 0.18 35
20260504221017 22 204 4.8 22.5 0.00 0.18 0.18 34
20260504220016 22 200 6.4 29.0 0.00 0.18 0.18 34
20260504215020 22 191 8.0 30.6 0.00 0.18 0.18 34
20260504214045 22 177 6.4 24.1 0.00 0.18 0.18 33
20260504213232 22 202 11.3 25.7 0.00 0.18 0.18 33
20260504211518 22 197 6.4 22.5 0.00 0.18 0.18 33
20260504210521 22 214 4.8 33.8 0.00 0.18 0.18 33
20260504205519 22 221 12.9 27.4 0.00 0.18 0.18 31
20260504204518 23 214 8.0 30.6 0.00 0.18 0.18 31
20260504203519 23 207 9.7 30.6 0.00 0.18 0.18 31
20260504202522 22 201 12.9 25.7 0.00 0.18 0.18 30
20260504201540 23 251 8.0 25.7 0.00 0.18 0.18 30
20260504200519 23 228 4.8 29.0 0.00 0.18 0.18 31
20260504195543 22 219 11.3 29.0 0.18 0.18 0.18 31
20260504194520 22 194 11.3 24.1 0.18 0.18 0.18 31
20260504193521 22 209 6.4 38.6 0.18 0.18 0.18 31
20260504192520 22 206 11.3 40.2 0.18 0.18 0.18 32
20260504191522 22 199 12.9 40.2 0.18 0.18 0.18 31
20260504190559 22 236 9.7 37.0 0.18 0.18 0.18 32